Maxwell AFB, AL

6:55 AM CDT on April 23, 2018 (GMT -0500)
Maxwell Air Force Base

Weather History for KMXF - May, 2013

Change the Weather History Date:

Wednesday, May 1, 2013

  Actual Average Record
Temperature  
Mean Temperature 69 °F -  
Max Temperature 72 °F 80 °F 90 °F (2012)
Min Temperature 65 °F 58 °F 46 °F (1999)
Cooling Degree Days 4    
Growing Degree Days 19 (Base 50)    
Moisture  
Dew Point 60 °F    
Average Humidity 74    
Maximum Humidity 84    
Minimum Humidity 64    
Precipitation  
Precipitation 0.01 in - - ()
Sea Level Pressure  
Sea Level Pressure 30.05 in    
Wind  
Wind Speed 10 mph (ENE)    
Max Wind Speed 16 mph    
Max Gust Speed 24 mph    
Visibility 10 miles    
Events Rain    
Averages and records for this station are not official NWS values.
T = Trace of Precipitation, MM = Missing Value Source: NWS Daily Summary

Daily Weather History Graph

Daily Weather History Graph

Search for Another Location

Airport or City:

Astronomy

May. 01, 2013 Rise Set
Actual Time 5:58 AM CDT 7:26 PM CDT
Civil Twilight 5:32 AM CDT 7:52 PM CDT
Nautical Twilight 5:01 AM CDT 8:24 PM CDT
Astronomical Twilight 4:28 AM CDT 8:57 PM CDT
Moon 12:34 AM CDT (5/1) 11:36 AM CDT (5/1)
Length of Visible Light 14h 20m
Length of Day
13h 28m
Waning Gibbous, 59% of the Moon is Illuminated
May 1
Waning Gibbous
May 2
Last Quarter
May 9
New
May 17
First Quarter
May 24
Full

Hourly Weather History & Observations

Time (CDT) Temp. Dew Point Humidity Pressure Visibility Wind Dir Wind Speed Gust Speed Precip Events Conditions
12:58 AM 73.4 °F 60.4 °F 64% 30.00 in 10.0 mi ENE 4.6 mph - N/A   Overcast
1:58 AM 69.8 °F 60.4 °F 72% 29.98 in 10.0 mi ENE 10.4 mph - N/A   Mostly Cloudy
2:58 AM 68.9 °F 59.5 °F 72% 29.97 in 10.0 mi East 9.2 mph - N/A   Clear
3:58 AM 67.8 °F 59.4 °F 74% 29.98 in 10.0 mi East 9.2 mph - N/A   Clear
4:58 AM 66.9 °F 60.3 °F 79% 29.99 in 10.0 mi East 8.1 mph - N/A   Mostly Cloudy
5:58 AM 66.4 °F 60.8 °F 82% 30.01 in 10.0 mi ENE 8.1 mph - N/A   Mostly Cloudy
6:58 AM 66.2 °F 61.3 °F 84% 30.04 in 10.0 mi ENE 9.2 mph - N/A   Partly Cloudy
7:34 AM 68.0 °F 62.6 °F 83% 30.05 in 10.0 mi East 8.1 mph - N/A Rain Light Rain
7:36 AM 68.0 °F 60.8 °F 78% 30.05 in 10.0 mi East 8.1 mph - N/A   Overcast
7:58 AM 67.8 °F 61.5 °F 80% 30.07 in 10.0 mi East 9.2 mph - 0.00 in   Mostly Cloudy
8:18 AM 68.0 °F 62.6 °F 83% 30.06 in 10.0 mi East 10.4 mph 18.4 mph N/A   Mostly Cloudy
8:58 AM 68.0 °F 61.2 °F 79% 30.07 in 10.0 mi East 12.7 mph - N/A   Overcast
9:53 AM 68.0 °F 60.8 °F 78% 30.07 in 10.0 mi East 12.7 mph - N/A   Overcast
9:58 AM 68.2 °F 60.4 °F 76% 30.08 in 10.0 mi East 11.5 mph - N/A   Overcast
10:58 AM 69.3 °F 60.4 °F 73% 30.09 in 10.0 mi East 12.7 mph - N/A   Scattered Clouds
11:30 AM 69.8 °F 60.8 °F 73% 30.08 in 10.0 mi East 12.7 mph - N/A   Light Drizzle
11:42 AM 69.8 °F 60.8 °F 73% 30.08 in 10.0 mi East 12.7 mph - N/A   Overcast
11:47 AM 69.8 °F 60.8 °F 73% 30.08 in 10.0 mi East 11.5 mph - N/A   Light Drizzle
11:52 AM 69.8 °F 60.8 °F 73% 30.08 in 10.0 mi East 9.2 mph - N/A Rain Light Rain
11:58 AM 70.0 °F 61.3 °F 74% 30.09 in 10.0 mi East 9.2 mph - 0.00 in Rain Light Rain
12:13 PM 69.8 °F 62.6 °F 78% 30.08 in 10.0 mi East 11.5 mph 21.9 mph N/A Rain Light Rain
12:24 PM 69.8 °F 60.8 °F 73% 30.08 in 10.0 mi East 12.7 mph - N/A   Overcast
12:26 PM 69.8 °F 60.8 °F 73% 30.08 in 10.0 mi ENE 13.8 mph - N/A Rain Light Rain
12:35 PM 69.8 °F 60.8 °F 73% 30.08 in 10.0 mi East 11.5 mph - N/A   Overcast
12:41 PM 69.8 °F 60.8 °F 73% 30.08 in 10.0 mi East 10.4 mph - N/A   Light Drizzle
12:50 PM 69.8 °F 60.8 °F 73% 30.08 in 10.0 mi East 12.7 mph - N/A   Overcast
12:58 PM 70.2 °F 61.3 °F 74% 30.08 in 10.0 mi East 10.4 mph - 0.00 in   Mostly Cloudy
12:59 PM 69.8 °F 60.8 °F 73% 30.07 in 10.0 mi East 11.5 mph - N/A   Light Drizzle
1:14 PM 69.8 °F 60.8 °F 73% 30.08 in 10.0 mi East 9.2 mph - N/A Rain Light Rain
1:45 PM 69.8 °F 62.6 °F 78% 30.06 in 10.0 mi ENE 13.8 mph 19.6 mph N/A   Overcast
1:49 PM 69.8 °F 62.6 °F 78% 30.06 in 10.0 mi East 13.8 mph 19.6 mph N/A Rain Light Rain
1:58 PM 69.3 °F 62.4 °F 79% 30.07 in 10.0 mi ENE 15.0 mph - 0.00 in Rain Light Rain
2:21 PM 69.8 °F 62.6 °F 78% 30.05 in 10.0 mi ENE 11.5 mph - N/A   Scattered Clouds
2:58 PM 70.2 °F 62.6 °F 77% 30.05 in 10.0 mi ENE 9.2 mph - 0.01 in   Scattered Clouds
3:28 PM 71.6 °F 62.6 °F 73% 30.03 in 10.0 mi East 10.4 mph 18.4 mph N/A   Mostly Cloudy
3:58 PM 72.1 °F 61.0 °F 68% 30.03 in 10.0 mi East 16.1 mph 21.9 mph N/A   Overcast
4:03 PM 71.6 °F 60.8 °F 69% 30.02 in 10.0 mi East 12.7 mph 21.9 mph N/A   Overcast
4:58 PM 72.0 °F 60.4 °F 67% 30.04 in 10.0 mi East 10.4 mph - N/A   Overcast
4:59 PM 71.6 °F 60.8 °F 69% 30.03 in 10.0 mi ENE 12.7 mph 19.6 mph N/A Rain Light Rain
5:14 PM 71.6 °F 59.0 °F 64% 30.02 in 10.0 mi East 15.0 mph - N/A   Overcast
5:58 PM 70.7 °F 59.7 °F 68% 30.04 in 10.0 mi ENE 11.5 mph - 0.00 in   Overcast
6:32 PM 69.8 °F 59.0 °F 68% 30.03 in 10.0 mi ENE 15.0 mph - N/A Rain Light Rain
6:48 PM 69.8 °F 60.8 °F 73% 30.04 in 10.0 mi ENE 10.4 mph - N/A   Overcast
6:53 PM 68.0 °F 60.8 °F 78% 30.04 in 10.0 mi ENE 11.5 mph - N/A   Light Drizzle
6:58 PM 68.7 °F 60.1 °F 74% 30.04 in 10.0 mi ENE 13.8 mph - 0.00 in   Light Drizzle
7:03 PM 68.0 °F 59.0 °F 73% 30.04 in 10.0 mi ENE 13.8 mph - N/A   Overcast
7:23 PM 68.0 °F 60.8 °F 78% 30.04 in 10.0 mi ENE 12.7 mph - N/A Rain Light Rain
7:33 PM 68.0 °F 60.8 °F 78% 30.05 in 10.0 mi ENE 10.4 mph - N/A   Overcast
7:56 PM 68.0 °F 59.0 °F 73% 30.05 in 10.0 mi ENE 12.7 mph - N/A Rain Light Rain
7:58 PM 68.0 °F 59.9 °F 75% 30.06 in 10.0 mi ENE 12.7 mph - 0.00 in Rain Light Rain
8:08 PM 68.0 °F 59.0 °F 73% 30.06 in 10.0 mi ENE 9.2 mph - N/A   Overcast
8:58 PM 67.8 °F 58.8 °F 73% 30.09 in 10.0 mi ENE 10.4 mph - 0.00 in   Overcast
9:58 PM 67.1 °F 58.8 °F 75% 30.08 in 10.0 mi ENE 12.7 mph - N/A   Overcast
9:59 PM 66.2 °F 59.0 °F 78% 30.07 in 10.0 mi ENE 12.7 mph - N/A Rain Light Rain
10:17 PM 66.2 °F 59.0 °F 78% 30.07 in 10.0 mi ENE 12.7 mph - N/A   Overcast
10:37 PM 66.2 °F 57.2 °F 73% 30.06 in 10.0 mi ENE 15.0 mph 21.9 mph N/A Rain Light Rain
10:58 PM 65.8 °F 57.4 °F 74% 30.07 in 10.0 mi ENE 13.8 mph - 0.00 in Rain Light Rain
11:16 PM 66.2 °F 57.2 °F 73% 30.06 in 10.0 mi ENE 13.8 mph 21.9 mph N/A   Mostly Cloudy
11:58 PM 65.7 °F 56.1 °F 71% 30.06 in 10.0 mi East 12.7 mph 24.2 mph 0.00 in   Overcast